Time,TemperatureF,DewpointF,PressureIn,WindDirection,WindDirectionDegrees,WindSpeedMPH,WindSpeedGustMPH,Humidity,HourlyPrecipIn,Conditions,Clouds,dailyrainin,SolarRadiationWatts/m^2,SoftwareType,DateUTC
2013-08-30 00:02:00,61.0,53.0,-100.00,SSW,209,2.0,5.0,74,0.00,,,0.00,0.000000,,2013-08-30 07:02:00,
2013-08-30 00:22:00,61.0,53.0,-100.00,SSW,209,2.0,5.0,74,0.00,,,0.00,0.000000,,2013-08-30 07:22:00,
2013-08-30 00:32:00,61.0,53.0,-100.00,SSW,209,2.0,5.0,74,0.00,,,0.00,0.000000,,2013-08-30 07:32:00,
2013-08-30 00:44:00,61.0,53.0,-100.00,SSW,209,2.0,5.0,74,0.00,,,0.00,0.000000,,2013-08-30 07:44:00,
2013-08-30 00:53:00,61.0,53.0,-100.00,SSW,209,2.0,5.0,74,0.00,,,0.00,0.000000,,2013-08-30 07:53:00,
2013-08-30 01:22:00,62.0,53.0,-100.00,SSW,197,2.0,4.0,72,0.00,,,-99.99,1.000000,,2013-08-30 08:22:00,
2013-08-30 01:32:00,62.0,53.0,-100.00,SSW,197,2.0,4.0,72,0.00,,,-99.99,1.000000,,2013-08-30 08:32:00,
2013-08-30 01:43:00,62.0,53.0,-100.00,SSW,197,2.0,4.0,72,0.00,,,-99.99,1.000000,,2013-08-30 08:43:00,
2013-08-30 01:52:00,62.0,53.0,-100.00,SSW,197,2.0,4.0,72,0.00,,,-99.99,1.000000,,2013-08-30 08:52:00,
2013-08-30 02:01:00,62.0,53.0,-100.00,SSW,197,2.0,4.0,72,0.00,,,-99.99,1.000000,,2013-08-30 09:01:00,
2013-08-30 02:02:00,61.0,52.0,-100.00,SW,214,3.0,6.0,72,0.00,,,0.00,0.000000,,2013-08-30 09:02:00,
2013-08-30 02:22:00,61.0,52.0,-100.00,SW,214,3.0,6.0,72,0.00,,,0.00,0.000000,,2013-08-30 09:22:00,
2013-08-30 02:33:00,61.0,52.0,-100.00,SW,214,3.0,6.0,72,0.00,,,0.00,0.000000,,2013-08-30 09:33:00,
2013-08-30 02:44:00,61.0,52.0,-100.00,SW,214,3.0,6.0,72,0.00,,,0.00,0.000000,,2013-08-30 09:44:00,
2013-08-30 02:53:00,61.0,52.0,-100.00,SW,214,3.0,6.0,72,0.00,,,0.00,0.000000,,2013-08-30 09:53:00,
2013-08-30 03:02:00,60.0,51.0,-100.00,SSW,193,4.0,5.0,73,0.00,,,0.00,0.000000,,2013-08-30 10:02:00,
2013-08-30 03:23:00,60.0,51.0,-100.00,SSW,193,4.0,5.0,73,0.00,,,0.00,0.000000,,2013-08-30 10:23:00,
2013-08-30 03:32:00,60.0,51.0,-100.00,SSW,193,4.0,5.0,73,0.00,,,0.00,0.000000,,2013-08-30 10:32:00,
2013-08-30 03:43:00,60.0,51.0,-100.00,SSW,193,4.0,5.0,73,0.00,,,0.00,0.000000,,2013-08-30 10:43:00,
2013-08-30 03:53:00,60.0,51.0,-100.00,SSW,193,4.0,5.0,73,0.00,,,0.00,0.000000,,2013-08-30 10:53:00,
2013-08-30 04:22:00,59.0,51.0,-100.00,South,190,3.0,4.0,76,0.00,,,0.00,0.000000,,2013-08-30 11:22:00,
2013-08-30 04:33:00,59.0,51.0,-100.00,South,190,3.0,4.0,76,0.00,,,0.00,0.000000,,2013-08-30 11:33:00,
2013-08-30 04:42:00,59.0,51.0,-100.00,South,190,3.0,4.0,76,0.00,,,0.00,0.000000,,2013-08-30 11:42:00,
2013-08-30 04:52:00,59.0,51.0,-100.00,South,190,3.0,4.0,76,0.00,,,0.00,0.000000,,2013-08-30 11:52:00,
2013-08-30 05:01:00,59.0,51.0,-100.00,South,190,3.0,4.0,76,0.00,,,0.00,0.000000,,2013-08-30 12:01:00,
2013-08-30 05:02:00,56.0,51.0,-100.00,SSE,157,3.0,5.0,82,0.00,,,0.00,0.000000,,2013-08-30 12:02:00,
2013-08-30 05:21:00,56.0,51.0,-100.00,SSE,157,3.0,5.0,82,0.00,,,0.00,0.000000,,2013-08-30 12:21:00,
2013-08-30 05:32:00,56.0,51.0,-100.00,SSE,157,3.0,5.0,82,0.00,,,0.00,0.000000,,2013-08-30 12:32:00,
2013-08-30 05:42:00,56.0,51.0,-100.00,SSE,157,3.0,5.0,82,0.00,,,0.00,0.000000,,2013-08-30 12:42:00,
2013-08-30 05:52:00,56.0,51.0,-100.00,SSE,157,3.0,5.0,82,0.00,,,0.00,0.000000,,2013-08-30 12:52:00,
2013-08-30 06:02:00,55.0,50.0,-100.00,ESE,123,2.0,4.0,84,0.00,,,-99.99,0.000000,,2013-08-30 13:02:00,
2013-08-30 06:42:00,55.0,50.0,-100.00,ESE,123,2.0,4.0,84,0.00,,,-99.99,0.000000,,2013-08-30 13:42:00,
2013-08-30 06:52:00,55.0,50.0,-100.00,ESE,123,2.0,4.0,84,0.00,,,-99.99,0.000000,,2013-08-30 13:52:00,
2013-08-30 07:02:00,56.0,51.0,-100.00,SSE,162,3.0,4.0,83,0.00,,,0.00,9.000000,,2013-08-30 14:02:00,
2013-08-30 07:42:00,56.0,51.0,-100.00,SSE,162,3.0,4.0,83,0.00,,,0.00,9.000000,,2013-08-30 14:42:00,
2013-08-30 07:52:00,56.0,51.0,-100.00,SSE,162,3.0,4.0,83,0.00,,,0.00,9.000000,,2013-08-30 14:52:00,
2013-08-30 08:02:00,63.0,53.0,-100.00,ENE,63,1.0,3.0,69,0.00,,,0.00,92.000000,,2013-08-30 15:02:00,
2013-08-30 08:43:00,63.0,53.0,-100.00,ENE,63,1.0,3.0,69,0.00,,,0.00,92.000000,,2013-08-30 15:43:00,
2013-08-30 08:54:00,63.0,53.0,-100.00,ENE,63,1.0,3.0,69,0.00,,,0.00,92.000000,,2013-08-30 15:54:00,
2013-08-30 09:02:00,67.0,52.0,-100.00,NE,55,2.0,5.0,58,0.00,,,0.00,253.000000,,2013-08-30 16:02:00,
2013-08-30 09:43:00,67.0,52.0,-100.00,NE,55,2.0,5.0,58,0.00,,,0.00,253.000000,,2013-08-30 16:43:00,
2013-08-30 09:53:00,67.0,52.0,-100.00,NE,55,2.0,5.0,58,0.00,,,0.00,253.000000,,2013-08-30 16:53:00,
2013-08-30 10:02:00,70.0,53.0,-100.00,SW,214,3.0,7.0,55,0.00,,,0.00,483.000000,,2013-08-30 17:02:00,
2013-08-30 10:23:00,70.0,53.0,-100.00,SW,214,3.0,7.0,55,0.00,,,0.00,483.000000,,2013-08-30 17:23:00,
2013-08-30 10:34:00,70.0,53.0,-100.00,SW,214,3.0,7.0,55,0.00,,,0.00,483.000000,,2013-08-30 17:34:00,
2013-08-30 10:42:00,70.0,53.0,-100.00,SW,214,3.0,7.0,55,0.00,,,0.00,483.000000,,2013-08-30 17:42:00,
2013-08-30 10:53:00,70.0,53.0,-100.00,SW,214,3.0,7.0,55,0.00,,,0.00,483.000000,,2013-08-30 17:53:00,
2013-08-30 11:42:00,72.0,52.0,-100.00,NNW,345,4.0,8.0,50,0.00,,,0.00,654.000000,,2013-08-30 18:42:00,
2013-08-30 11:52:00,72.0,52.0,-100.00,NNW,345,4.0,8.0,50,0.00,,,0.00,654.000000,,2013-08-30 18:52:00,
2013-08-30 12:01:00,72.0,52.0,-100.00,NNW,345,4.0,8.0,50,0.00,,,0.00,654.000000,,2013-08-30 19:01:00,
2013-08-30 12:02:00,75.0,52.0,-100.00,North,10,6.0,12.0,44,0.00,,,0.00,813.000000,,2013-08-30 19:02:00,
2013-08-30 12:42:00,75.0,52.0,-100.00,North,10,6.0,12.0,44,0.00,,,0.00,813.000000,,2013-08-30 19:42:00,
2013-08-30 12:53:00,75.0,52.0,-100.00,North,10,6.0,12.0,44,0.00,,,0.00,813.000000,,2013-08-30 19:53:00,
2013-08-30 13:02:00,79.0,49.0,-100.00,South,171,5.0,14.0,35,0.00,,,0.00,849.000000,,2013-08-30 20:02:00,
2013-08-30 13:22:00,79.0,49.0,-100.00,South,171,5.0,14.0,35,0.00,,,0.00,849.000000,,2013-08-30 20:22:00,
2013-08-30 13:32:00,79.0,49.0,-100.00,South,171,5.0,14.0,35,0.00,,,0.00,849.000000,,2013-08-30 20:32:00,
2013-08-30 13:43:00,79.0,49.0,-100.00,South,171,5.0,14.0,35,0.00,,,0.00,849.000000,,2013-08-30 20:43:00,
2013-08-30 13:52:00,79.0,49.0,-100.00,South,171,5.0,14.0,35,0.00,,,0.00,849.000000,,2013-08-30 20:52:00,
2013-08-30 14:02:00,80.0,49.0,-100.00,SSW,208,4.0,13.0,34,0.00,,,0.00,845.000000,,2013-08-30 21:02:00,
2013-08-30 14:22:00,80.0,49.0,-100.00,SSW,208,4.0,13.0,34,0.00,,,0.00,845.000000,,2013-08-30 21:22:00,
2013-08-30 14:34:00,80.0,49.0,-100.00,SSW,208,4.0,13.0,34,0.00,,,0.00,845.000000,,2013-08-30 21:34:00,
2013-08-30 14:44:00,80.0,49.0,-100.00,SSW,208,4.0,13.0,34,0.00,,,0.00,845.000000,,2013-08-30 21:44:00,
2013-08-30 14:55:00,80.0,49.0,-100.00,SSW,208,4.0,13.0,34,0.00,,,0.00,845.000000,,2013-08-30 21:55:00,
2013-08-30 15:02:00,80.0,48.0,-100.00,ESE,104,5.0,12.0,33,0.00,,,0.00,797.000000,,2013-08-30 22:02:00,
2013-08-30 15:43:00,80.0,48.0,-100.00,ESE,104,5.0,12.0,33,0.00,,,0.00,797.000000,,2013-08-30 22:43:00,
2013-08-30 15:54:00,80.0,48.0,-100.00,ESE,104,5.0,12.0,33,0.00,,,0.00,797.000000,,2013-08-30 22:54:00,
2013-08-30 16:02:00,82.0,48.0,-100.00,NNW,342,8.0,13.0,31,0.00,,,0.00,685.000000,,2013-08-30 23:02:00,
2013-08-30 16:22:00,82.0,48.0,-100.00,NNW,342,8.0,13.0,31,0.00,,,0.00,685.000000,,2013-08-30 23:22:00,
2013-08-30 16:33:00,82.0,48.0,-100.00,NNW,342,8.0,13.0,31,0.00,,,0.00,685.000000,,2013-08-30 23:33:00,
2013-08-30 16:42:00,82.0,48.0,-100.00,NNW,342,8.0,13.0,31,0.00,,,0.00,685.000000,,2013-08-30 23:42:00,
2013-08-30 16:53:00,82.0,48.0,-100.00,NNW,342,8.0,13.0,31,0.00,,,0.00,685.000000,,2013-08-30 23:53:00,
2013-08-30 17:22:00,81.0,47.0,-100.00,North,352,7.0,12.0,30,0.00,,,0.00,552.000000,,2013-08-31 00:22:00,
2013-08-30 17:32:00,81.0,47.0,-100.00,North,352,7.0,12.0,30,0.00,,,0.00,552.000000,,2013-08-31 00:32:00,
2013-08-30 17:42:00,81.0,47.0,-100.00,North,352,7.0,12.0,30,0.00,,,0.00,552.000000,,2013-08-31 00:42:00,
2013-08-30 17:52:00,81.0,47.0,-100.00,North,352,7.0,12.0,30,0.00,,,0.00,552.000000,,2013-08-31 00:52:00,
2013-08-30 18:01:00,81.0,47.0,-100.00,North,352,7.0,12.0,30,0.00,,,0.00,552.000000,,2013-08-31 01:01:00,
2013-08-30 18:02:00,79.0,46.0,-100.00,NNE,13,9.0,14.0,31,0.00,,,0.00,380.000000,,2013-08-31 01:02:00,
2013-08-30 18:42:00,79.0,46.0,-100.00,NNE,13,9.0,14.0,31,0.00,,,0.00,380.000000,,2013-08-31 01:42:00,
2013-08-30 18:52:00,79.0,46.0,-100.00,NNE,13,9.0,14.0,31,0.00,,,0.00,380.000000,,2013-08-31 01:52:00,
2013-08-30 19:02:00,76.0,45.0,-100.00,North,6,9.0,16.0,33,0.00,,,0.00,198.000000,,2013-08-31 02:02:00,
2013-08-30 19:42:00,76.0,45.0,-100.00,North,6,9.0,16.0,33,0.00,,,0.00,198.000000,,2013-08-31 02:42:00,
2013-08-30 19:52:00,76.0,45.0,-100.00,North,6,9.0,16.0,33,0.00,,,0.00,198.000000,,2013-08-31 02:52:00,
2013-08-30 20:02:00,70.0,49.0,-100.00,NNE,13,12.0,21.0,48,0.00,,,0.00,28.000000,,2013-08-31 03:02:00,
2013-08-30 20:44:00,70.0,49.0,-100.00,NNE,13,12.0,21.0,48,0.00,,,0.00,28.000000,,2013-08-31 03:44:00,
2013-08-30 20:54:00,70.0,49.0,-100.00,NNE,13,12.0,21.0,48,0.00,,,0.00,28.000000,,2013-08-31 03:54:00,
2013-08-30 21:02:00,67.0,50.0,-100.00,NNE,15,9.0,17.0,55,0.00,,,0.00,1.000000,,2013-08-31 04:02:00,
2013-08-30 21:24:00,67.0,50.0,-100.00,NNE,15,9.0,17.0,55,0.00,,,0.00,1.000000,,2013-08-31 04:24:00,
2013-08-30 21:34:00,67.0,50.0,-100.00,NNE,15,9.0,17.0,55,0.00,,,0.00,1.000000,,2013-08-31 04:34:00,
2013-08-30 21:44:00,67.0,50.0,-100.00,NNE,15,9.0,17.0,55,0.00,,,0.00,1.000000,,2013-08-31 04:44:00,
2013-08-30 21:54:00,67.0,50.0,-100.00,NNE,15,9.0,17.0,55,0.00,,,0.00,1.000000,,2013-08-31 04:54:00,
2013-08-30 22:02:00,65.0,51.0,-100.00,NNE,16,8.0,15.0,60,0.00,,,0.00,1.000000,,2013-08-31 05:02:00,
2013-08-30 22:43:00,65.0,51.0,-100.00,NNE,16,8.0,15.0,60,0.00,,,0.00,1.000000,,2013-08-31 05:43:00,
2013-08-30 22:52:00,65.0,51.0,-100.00,NNE,16,8.0,15.0,60,0.00,,,0.00,1.000000,,2013-08-31 05:52:00,
2013-08-30 23:42:00,61.0,51.0,-100.00,NE,45,6.0,11.0,69,0.00,,,-99.99,1.000000,,2013-08-31 06:42:00,
2013-08-30 23:52:00,61.0,51.0,-100.00,NE,45,6.0,11.0,69,0.00,,,-99.99,1.000000,,2013-08-31 06:52:00,